Regional Weather Roundup
Issued by NWS

Home | Current Version | Previous Version | Graphics & Text | Print | Product List | Glossary On
Versions: 1 2 3 4 5 6 7 8 9 10 11 12 13 14 15 16 17 18 19 20 21 22 23 24 25 26 27 28 29 30 31 32 33 34 35 36 37 38 39 40 41 42 43 44 45 46 47 48 49 50
000
ASUS43 KOAX 301010
RWRNE

WEATHER ROUNDUP FOR NEBRASKA
NATIONAL WEATHER SERVICE OMAHA NE
500 AM CDT TUE JUN 30 2015

NOTES: SATELLITE DATA IS BEING USED TO AUGMENT CLOUD COVER ABOVE
       12000 FEET.
       "FAIR" INDICATES FEW OR NO CLOUDS BELOW 12,000 FEET WITH NO
       SIGNIFICANT WEATHER AND/OR OBSTRUCTIONS TO VISIBILITY.

  * THESE STATIONS DO NOT REPORT WEATHER SUCH AS RAIN...SNOW OR FOG.

NEZ001>004-019>022-054>056-301100-
NEBRASKA PANHANDLE

CITY           SKY/WX    TMP DP  RH WIND       PRES   REMARKS
SCOTTSBLUFF    MOCLDY    60  54  80 VRB5      30.07S
ALLIANCE       PTCLDY    55  53  93 W8        30.06F
CHADRON        MOCLDY    61  57  87 S3        30.01S
KIMBALL          N/A    N/A N/A N/A MISG        N/A
SIDNEY         CLEAR     58  56  93 W7        30.10F
$$

NEZ057>060-069>072-079>082-301100-
SOUTHWEST NEBRASKA

CITY           SKY/WX    TMP DP  RH WIND       PRES   REMARKS
NORTH PLATTE   CLEAR     62  58  86 E5        30.01S
IMPERIAL       CLEAR     61  57  87 W5        30.03F
LEXINGTON      CLEAR     61  58  91 CALM      29.99S
MCCOOK         CLEAR     62  57  83 W3        30.00F
OGALLALA       PTCLDY    59  57  93 W5        30.04S
$$

NEZ005>010-023>029-035>040-094-301100-
NORTH CENTRAL NEBRASKA

CITY           SKY/WX    TMP DP  RH WIND       PRES   REMARKS
VALENTINE      CLEAR     63  58  83 SW7       29.96F
AINSWORTH      CLEAR     66  57  72 SW7       29.97S
BROKEN BOW     CLEAR     64  58  80 CALM      29.99S
O`NEILL        MOCLDY    66  62  87 CALM      29.94F
ORD            PTCLDY    59  56  89 CALM      29.96S
THEDFORD       CLEAR     62  59  91 CALM      30.02S
$$

NEZ041-046>049-061>064-073>077-083>087-301100-
SOUTH CENTRAL NEBRASKA

CITY           SKY/WX    TMP DP  RH WIND       PRES   REMARKS
GRAND ISLAND   CLEAR     67  60  78 SW5       29.97S
AURORA         CLEAR     66  63  89 SW7       29.96S
HASTINGS       CLEAR     66  60  81 SW3       29.97F
HEBRON         CLEAR     64  60  87 CALM      29.96S
HOLDREGE       PTCLDY    69  57  64 SW6       29.99S
KEARNEY *      CLEAR     64  59  82 CALM      29.98F
YORK           CLEAR     64  61  88 SW7       29.96S
$$

NEZ011>018-030>034-042>045-301100-
NORTHEAST NEBRASKA

CITY           SKY/WX    TMP DP  RH WIND       PRES   REMARKS
NORFOLK        CLEAR     65  61  87 CALM      29.93R FOG
ALBION         PTCLDY    62  57  86 CALM      29.95F
BLAIR          PTCLDY    68  61  78 W6        29.91S
COLUMBUS *     CLEAR     63  55  77 CALM      29.94F
FREMONT        CLEAR     65  62  89 W3        29.92R
TEKAMAH        CLEAR     66  61  84 NW5       29.89S
WAYNE          CLEAR     61  60  96 CALM      29.92S FOG
$$

NEZ050>053-065>068-078-088>093-301100-
SOUTHEAST NEBRASKA

CITY           SKY/WX    TMP DP  RH WIND       PRES   REMARKS
LINCOLN        CLEAR     65  62  90 CALM      29.94R FOG
OMAHA EPPLEY   CLOUDY    68  64  87 SE3       29.90S
BEATRICE       CLEAR     65  63  93 CALM      29.94S
FALLS CITY     CLOUDY    65  63  93 CALM      29.91S
NEBRASKA CITY  MOCLDY    66  59  77 W8        29.92S
PLATTSMOUTH    PTCLDY    68  60  73 W5        29.91S
$$

NEZ044-045-051>053-067-301100-
OMAHA AREA

CITY           SKY/WX    TMP DP  RH WIND       PRES   REMARKS
OMAHA EPPLEY   CLOUDY    68  64  87 SE3       29.90S
BLAIR          PTCLDY    68  61  78 W6        29.91S
FREMONT        CLEAR     65  62  89 W3        29.92R
MILLARD        PTCLDY    65  64  96 CALM      29.91R FOG
OFFUTT AFB     MOCLDY    62  61  96 W2        29.90R
PLATTSMOUTH    PTCLDY    68  60  73 W5        29.91S
WAHOO          FAIR      70  62  75 W6        29.91F
$$



USA.gov is the U.S. government's official web portal to all federal, state and local government web resources and services.